Year,Month,Day,Hour,Minute,Value (Times are PST for temperature in C)
2015,06,21,00,00,11.90
2015,06,21,00,01,11.90
2015,06,21,00,02,11.90
2015,06,21,00,03,11.90
2015,06,21,00,04,11.90
2015,06,21,00,05,11.90
2015,06,21,00,06,11.90
2015,06,21,00,07,11.90
2015,06,21,00,08,11.90
2015,06,21,00,09,11.90
2015,06,21,00,10,11.90
2015,06,21,00,11,11.90
2015,06,21,00,12,11.90
2015,06,21,00,13,11.90
2015,06,21,00,14,11.90
2015,06,21,00,15,11.90
2015,06,21,00,16,11.90
2015,06,21,00,17,11.90
2015,06,21,00,18,11.90
2015,06,21,00,19,11.90
2015,06,21,00,20,11.90
2015,06,21,00,21,12.00
2015,06,21,00,22,12.00
2015,06,21,00,23,12.00
2015,06,21,00,24,12.00
2015,06,21,00,25,12.10
2015,06,21,00,26,12.10
2015,06,21,00,27,12.10
2015,06,21,00,28,12.20
2015,06,21,00,29,12.20
2015,06,21,00,30,12.20
2015,06,21,00,31,12.20
2015,06,21,00,32,12.20
2015,06,21,00,33,12.20
2015,06,21,00,34,12.20
2015,06,21,00,35,12.20
2015,06,21,00,36,12.30
2015,06,21,00,37,12.30
2015,06,21,00,38,12.30
2015,06,21,00,39,12.30
2015,06,21,00,40,12.30
2015,06,21,00,41,12.30
2015,06,21,00,42,12.30
2015,06,21,00,43,12.30
2015,06,21,00,44,12.30
2015,06,21,00,45,12.30
2015,06,21,00,46,12.30
2015,06,21,00,47,12.30
2015,06,21,00,48,12.30
2015,06,21,00,49,12.20
2015,06,21,00,50,12.20
2015,06,21,00,51,12.20
2015,06,21,00,52,12.20
2015,06,21,00,53,12.20
2015,06,21,00,54,12.20
2015,06,21,00,55,12.20
2015,06,21,00,56,12.20
2015,06,21,00,57,12.20
2015,06,21,00,58,12.20
2015,06,21,00,59,12.20
2015,06,21,01,00,12.20
2015,06,21,01,01,12.20
2015,06,21,01,02,12.20
2015,06,21,01,03,12.20
2015,06,21,01,04,12.20
2015,06,21,01,05,12.20
2015,06,21,01,06,12.10
2015,06,21,01,07,12.10
2015,06,21,01,08,12.10
2015,06,21,01,09,12.20
2015,06,21,01,10,12.10
2015,06,21,01,11,12.20
2015,06,21,01,12,12.20
2015,06,21,01,13,12.20
2015,06,21,01,14,12.20
2015,06,21,01,15,12.20
2015,06,21,01,16,12.20
2015,06,21,01,17,12.20
2015,06,21,01,18,12.10
2015,06,21,01,19,12.10
2015,06,21,01,20,12.10
2015,06,21,01,21,12.10
2015,06,21,01,22,12.10
2015,06,21,01,23,12.10
2015,06,21,01,24,12.10
2015,06,21,01,25,12.00
2015,06,21,01,26,12.00
2015,06,21,01,27,12.00
2015,06,21,01,28,12.00
2015,06,21,01,29,12.00
2015,06,21,01,30,11.90
2015,06,21,01,31,11.90
2015,06,21,01,32,11.90
2015,06,21,01,33,11.90
2015,06,21,01,34,11.80
2015,06,21,01,35,11.80
2015,06,21,01,36,11.80
2015,06,21,01,37,11.80
2015,06,21,01,38,11.80
2015,06,21,01,39,11.80
2015,06,21,01,40,11.80
2015,06,21,01,41,11.90
2015,06,21,01,42,11.90
2015,06,21,01,43,11.90
2015,06,21,01,44,11.90
2015,06,21,01,45,11.90
2015,06,21,01,46,11.90
2015,06,21,01,47,11.90
2015,06,21,01,48,11.90
2015,06,21,01,49,11.90
2015,06,21,01,50,11.90
2015,06,21,01,51,11.90
2015,06,21,01,52,11.90
2015,06,21,01,53,11.90
2015,06,21,01,54,11.90
2015,06,21,01,55,11.90
2015,06,21,01,56,11.80
2015,06,21,01,57,11.80
2015,06,21,01,58,11.80
2015,06,21,01,59,11.80
2015,06,21,02,00,11.80
2015,06,21,02,01,11.80
2015,06,21,02,02,11.80
2015,06,21,02,03,11.80
2015,06,21,02,04,11.80
2015,06,21,02,05,11.80
2015,06,21,02,06,11.70
2015,06,21,02,07,11.70
2015,06,21,02,08,11.70
2015,06,21,02,09,11.70
2015,06,21,02,10,11.70
2015,06,21,02,11,11.70
2015,06,21,02,12,11.70
2015,06,21,02,13,11.60
2015,06,21,02,14,11.60
2015,06,21,02,15,11.60
2015,06,21,02,16,11.70
2015,06,21,02,17,11.70
2015,06,21,02,18,11.70
2015,06,21,02,19,11.70
2015,06,21,02,20,11.70
2015,06,21,02,21,11.70
2015,06,21,02,22,11.70
2015,06,21,02,23,11.70
2015,06,21,02,24,11.70
2015,06,21,02,25,11.70
2015,06,21,02,26,11.70
2015,06,21,02,27,11.70
2015,06,21,02,28,11.70
2015,06,21,02,29,11.70
2015,06,21,02,30,11.70
2015,06,21,02,31,11.70
2015,06,21,02,32,11.70
2015,06,21,02,33,11.60
2015,06,21,02,34,11.60
2015,06,21,02,35,11.60
2015,06,21,02,36,11.60
2015,06,21,02,37,11.60
2015,06,21,02,38,11.60
2015,06,21,02,39,11.60
2015,06,21,02,40,11.60
2015,06,21,02,41,11.60
2015,06,21,02,42,11.60
2015,06,21,02,43,11.60
2015,06,21,02,44,11.60
2015,06,21,02,45,11.60
2015,06,21,02,46,11.60
2015,06,21,02,47,11.60
2015,06,21,02,48,11.60
2015,06,21,02,49,11.60
2015,06,21,02,50,11.60
2015,06,21,02,51,11.60
2015,06,21,02,52,11.60
2015,06,21,02,53,11.60
2015,06,21,02,54,11.60
2015,06,21,02,55,11.60
2015,06,21,02,56,11.60
2015,06,21,02,57,11.60
2015,06,21,02,58,11.60
2015,06,21,02,59,11.70
2015,06,21,03,00,11.70
2015,06,21,03,01,11.70
2015,06,21,03,02,11.70
2015,06,21,03,03,11.70
2015,06,21,03,04,11.70
2015,06,21,03,05,11.70
2015,06,21,03,06,11.60
2015,06,21,03,07,11.60
2015,06,21,03,08,11.60
2015,06,21,03,09,11.60
2015,06,21,03,10,11.60
2015,06,21,03,11,11.60
2015,06,21,03,12,11.50
2015,06,21,03,13,11.50
2015,06,21,03,14,11.50
2015,06,21,03,15,11.40
2015,06,21,03,16,11.40
2015,06,21,03,17,11.40
2015,06,21,03,18,11.40
2015,06,21,03,19,11.30
2015,06,21,03,20,11.30
2015,06,21,03,21,11.30
2015,06,21,03,22,11.30
2015,06,21,03,23,11.20
2015,06,21,03,24,11.20
2015,06,21,03,25,11.20
2015,06,21,03,26,11.20
2015,06,21,03,27,11.10
2015,06,21,03,28,11.10
2015,06,21,03,29,11.10
2015,06,21,03,30,11.10
2015,06,21,03,31,11.00
2015,06,21,03,32,11.00
2015,06,21,03,33,11.00
2015,06,21,03,34,11.00
2015,06,21,03,35,11.00
2015,06,21,03,36,11.00
2015,06,21,03,37,11.00
2015,06,21,03,38,10.90
2015,06,21,03,39,10.90
2015,06,21,03,40,10.90
2015,06,21,03,41,10.90
2015,06,21,03,42,10.90
2015,06,21,03,43,10.90
2015,06,21,03,44,10.80
2015,06,21,03,45,10.80
2015,06,21,03,46,10.80
2015,06,21,03,47,10.80
2015,06,21,03,48,10.80
2015,06,21,03,49,10.80
2015,06,21,03,50,10.80
2015,06,21,03,51,10.80
2015,06,21,03,52,10.80
2015,06,21,03,53,10.80
2015,06,21,03,54,10.70
2015,06,21,03,55,10.70
2015,06,21,03,56,10.70
2015,06,21,03,57,10.70
2015,06,21,03,58,10.70
2015,06,21,03,59,10.70
2015,06,21,04,00,10.60
2015,06,21,04,01,10.60
2015,06,21,04,02,10.60
2015,06,21,04,03,10.60
2015,06,21,04,04,10.60
2015,06,21,04,05,10.60
2015,06,21,04,06,10.60
2015,06,21,04,07,10.60
2015,06,21,04,08,10.60
2015,06,21,04,09,10.50
2015,06,21,04,10,10.50
2015,06,21,04,11,10.50
2015,06,21,04,12,10.50
2015,06,21,04,13,10.40
2015,06,21,04,14,10.40
2015,06,21,04,15,10.40
2015,06,21,04,16,10.40
2015,06,21,04,17,10.40
2015,06,21,04,18,10.40
2015,06,21,04,19,10.40
2015,06,21,04,20,10.30
2015,06,21,04,21,10.30
2015,06,21,04,22,10.30
2015,06,21,04,23,10.30
2015,06,21,04,24,10.30
2015,06,21,04,25,10.30
2015,06,21,04,26,10.30
2015,06,21,04,27,10.20
2015,06,21,04,28,10.20
2015,06,21,04,29,10.20
2015,06,21,04,30,10.20
2015,06,21,04,31,10.20
2015,06,21,04,32,10.20
2015,06,21,04,33,10.20
2015,06,21,04,34,10.10
2015,06,21,04,35,10.10
2015,06,21,04,36,10.10
2015,06,21,04,37,10.10
2015,06,21,04,38,10.10
2015,06,21,04,39,10.00
2015,06,21,04,40,10.00
2015,06,21,04,41,10.00
2015,06,21,04,42,9.90
2015,06,21,04,43,9.90
2015,06,21,04,44,9.90
2015,06,21,04,45,9.90
2015,06,21,04,46,9.90
2015,06,21,04,47,9.80
2015,06,21,04,48,9.80
2015,06,21,04,49,9.80
2015,06,21,04,50,9.80
2015,06,21,04,51,9.80
2015,06,21,04,52,9.80
2015,06,21,04,53,9.80
2015,06,21,04,54,9.80
2015,06,21,04,55,9.80
2015,06,21,04,56,9.80
2015,06,21,04,57,9.70
2015,06,21,04,58,9.70
2015,06,21,04,59,9.70
2015,06,21,05,00,9.70
2015,06,21,05,01,9.70
2015,06,21,05,02,9.70
2015,06,21,05,03,9.70
2015,06,21,05,04,9.70
2015,06,21,05,05,9.70
2015,06,21,05,06,9.70
2015,06,21,05,07,9.60
2015,06,21,05,08,9.60
2015,06,21,05,09,9.60
2015,06,21,05,10,9.60
2015,06,21,05,11,9.60
2015,06,21,05,12,9.60
2015,06,21,05,13,9.60
2015,06,21,05,14,9.60
2015,06,21,05,15,9.60
2015,06,21,05,16,9.60
2015,06,21,05,17,9.50
2015,06,21,05,18,9.50
2015,06,21,05,19,9.50
2015,06,21,05,20,9.50
2015,06,21,05,21,9.40
2015,06,21,05,22,9.40
2015,06,21,05,23,9.40
2015,06,21,05,24,9.40
2015,06,21,05,25,9.40
2015,06,21,05,26,9.40
2015,06,21,05,27,9.40
2015,06,21,05,28,9.30
2015,06,21,05,29,9.30
2015,06,21,05,30,9.30
2015,06,21,05,31,9.30
2015,06,21,05,32,9.30
2015,06,21,05,33,9.30
2015,06,21,05,34,9.30
2015,06,21,05,35,9.30
2015,06,21,05,36,9.30
2015,06,21,05,37,9.20
2015,06,21,05,38,9.20
2015,06,21,05,39,9.20
2015,06,21,05,40,9.20
2015,06,21,05,41,9.20
2015,06,21,05,42,9.20
2015,06,21,05,43,9.20
2015,06,21,05,44,9.20
2015,06,21,05,45,9.20
2015,06,21,05,46,9.20
2015,06,21,05,47,9.20
2015,06,21,05,48,9.20
2015,06,21,05,49,9.20
2015,06,21,05,50,9.20
2015,06,21,05,51,9.20
2015,06,21,05,52,9.20
2015,06,21,05,53,9.20
2015,06,21,05,54,9.20
2015,06,21,05,55,9.20
2015,06,21,05,56,9.20
2015,06,21,05,57,9.20
2015,06,21,05,58,9.20
2015,06,21,05,59,9.10
2015,06,21,06,00,9.10
2015,06,21,06,01,9.10
2015,06,21,06,02,9.10
2015,06,21,06,03,9.10
2015,06,21,06,04,9.10
2015,06,21,06,05,9.10
2015,06,21,06,06,9.10
2015,06,21,06,07,9.10
2015,06,21,06,08,9.20
2015,06,21,06,09,9.20
2015,06,21,06,10,9.20
2015,06,21,06,11,9.20
2015,06,21,06,12,9.30
2015,06,21,06,13,9.30
2015,06,21,06,14,9.30
2015,06,21,06,15,9.40
2015,06,21,06,16,9.40
2015,06,21,06,17,9.50
2015,06,21,06,18,9.50
2015,06,21,06,19,9.50
2015,06,21,06,20,9.60
2015,06,21,06,21,9.60
2015,06,21,06,22,9.60
2015,06,21,06,23,9.70
2015,06,21,06,24,9.70
2015,06,21,06,25,9.80
2015,06,21,06,26,9.90
2015,06,21,06,27,9.90
2015,06,21,06,28,10.00
2015,06,21,06,29,10.10
2015,06,21,06,30,10.20
2015,06,21,06,31,10.20
2015,06,21,06,32,10.30
2015,06,21,06,33,10.40
2015,06,21,06,34,10.50
2015,06,21,06,35,10.60
2015,06,21,06,36,10.70
2015,06,21,06,37,10.70
2015,06,21,06,38,10.80
2015,06,21,06,39,10.90
2015,06,21,06,40,11.00
2015,06,21,06,41,11.00
2015,06,21,06,42,11.10
2015,06,21,06,43,11.20
2015,06,21,06,44,11.30
2015,06,21,06,45,11.30
2015,06,21,06,46,11.40
2015,06,21,06,47,11.50
2015,06,21,06,48,11.50
2015,06,21,06,49,11.60
2015,06,21,06,50,11.70
2015,06,21,06,51,11.80
2015,06,21,06,52,11.90
2015,06,21,06,53,12.00
2015,06,21,06,54,12.10
2015,06,21,06,55,12.10
2015,06,21,06,56,12.20
2015,06,21,06,57,12.20
2015,06,21,06,58,12.20
2015,06,21,06,59,12.30
2015,06,21,07,00,12.30
2015,06,21,07,01,12.40
2015,06,21,07,02,12.50
2015,06,21,07,03,12.50
2015,06,21,07,04,12.60
2015,06,21,07,05,12.70
2015,06,21,07,06,12.70
2015,06,21,07,07,12.80
2015,06,21,07,08,12.90
2015,06,21,07,09,12.90
2015,06,21,07,10,13.00
2015,06,21,07,11,13.00
2015,06,21,07,12,13.10
2015,06,21,07,13,13.20
2015,06,21,07,14,13.20
2015,06,21,07,15,13.20
2015,06,21,07,16,13.30
2015,06,21,07,17,13.40
2015,06,21,07,18,13.50
2015,06,21,07,19,13.50
2015,06,21,07,20,13.60
2015,06,21,07,21,13.70
2015,06,21,07,22,13.70
2015,06,21,07,23,13.80
2015,06,21,07,24,13.80
2015,06,21,07,25,13.80
2015,06,21,07,26,13.80
2015,06,21,07,27,13.80
2015,06,21,07,28,13.90
2015,06,21,07,29,13.90
2015,06,21,07,30,14.00
2015,06,21,07,31,14.00
2015,06,21,07,32,14.00
2015,06,21,07,33,14.00
2015,06,21,07,34,14.10
2015,06,21,07,35,14.10
2015,06,21,07,36,14.10
2015,06,21,07,37,14.10
2015,06,21,07,38,14.20
2015,06,21,07,39,14.20
2015,06,21,07,40,14.20
2015,06,21,07,41,14.20
2015,06,21,07,42,14.30
2015,06,21,07,43,14.30
2015,06,21,07,44,14.30
2015,06,21,07,45,14.30
2015,06,21,07,46,14.30
2015,06,21,07,47,14.30
2015,06,21,07,48,14.40
2015,06,21,07,49,14.50
2015,06,21,07,50,14.50
2015,06,21,07,51,14.60
2015,06,21,07,52,14.70
2015,06,21,07,53,14.70
2015,06,21,07,54,14.80
2015,06,21,07,55,14.80
2015,06,21,07,56,14.90
2015,06,21,07,57,15.00
2015,06,21,07,58,15.10
2015,06,21,07,59,15.10
2015,06,21,08,00,15.10
2015,06,21,08,01,15.10
2015,06,21,08,02,15.10
2015,06,21,08,03,15.10
2015,06,21,08,04,15.10
2015,06,21,08,05,15.10
2015,06,21,08,06,15.10
2015,06,21,08,07,15.00
2015,06,21,08,08,15.00
2015,06,21,08,09,15.00
2015,06,21,08,10,15.10
2015,06,21,08,11,15.20
2015,06,21,08,12,15.20
2015,06,21,08,13,15.30
2015,06,21,08,14,15.30
2015,06,21,08,15,15.30
2015,06,21,08,16,15.40
2015,06,21,08,17,15.50
2015,06,21,08,18,15.50
2015,06,21,08,19,15.50
2015,06,21,08,20,15.60
2015,06,21,08,21,15.60
2015,06,21,08,22,15.60
2015,06,21,08,23,15.70
2015,06,21,08,24,15.70
2015,06,21,08,25,15.70
2015,06,21,08,26,15.80
2015,06,21,08,27,15.90
2015,06,21,08,28,15.90
2015,06,21,08,29,15.90
2015,06,21,08,30,15.90
2015,06,21,08,31,15.80
2015,06,21,08,32,15.80
2015,06,21,08,33,15.90
2015,06,21,08,34,15.90
2015,06,21,08,35,15.90
2015,06,21,08,36,15.90
2015,06,21,08,37,15.90
2015,06,21,08,38,15.90
2015,06,21,08,39,15.90
2015,06,21,08,40,15.90
2015,06,21,08,41,15.90
2015,06,21,08,42,16.00
2015,06,21,08,43,16.20
2015,06,21,08,44,16.20
2015,06,21,08,45,16.30
2015,06,21,08,46,16.40
2015,06,21,08,47,16.40
2015,06,21,08,48,16.50
2015,06,21,08,49,16.50
2015,06,21,08,50,16.60
2015,06,21,08,51,16.60
2015,06,21,08,52,16.50
2015,06,21,08,53,16.50
2015,06,21,08,54,16.40
2015,06,21,08,55,16.30
2015,06,21,08,56,16.40
2015,06,21,08,57,16.40
2015,06,21,08,58,16.40
2015,06,21,08,59,16.40
2015,06,21,09,00,16.40
2015,06,21,09,01,16.30
2015,06,21,09,02,16.30
2015,06,21,09,03,16.20
2015,06,21,09,04,16.20
2015,06,21,09,05,16.20
2015,06,21,09,06,16.10
2015,06,21,09,07,16.10
2015,06,21,09,08,16.10
2015,06,21,09,09,16.10
2015,06,21,09,10,16.20
2015,06,21,09,11,16.30
2015,06,21,09,12,16.30
2015,06,21,09,13,16.40
2015,06,21,09,14,16.50
2015,06,21,09,15,16.60
2015,06,21,09,16,16.70
2015,06,21,09,17,16.70
2015,06,21,09,18,16.80
2015,06,21,09,19,16.80
2015,06,21,09,20,16.80
2015,06,21,09,21,16.80
2015,06,21,09,22,16.80
2015,06,21,09,23,16.80
2015,06,21,09,24,16.80
2015,06,21,09,25,16.80
2015,06,21,09,26,16.90
2015,06,21,09,27,16.90
2015,06,21,09,28,16.90
2015,06,21,09,29,16.90
2015,06,21,09,30,17.00
2015,06,21,09,31,17.10
2015,06,21,09,32,17.20
2015,06,21,09,33,17.20
2015,06,21,09,34,17.20
2015,06,21,09,35,17.30
2015,06,21,09,36,17.20
2015,06,21,09,37,17.20
2015,06,21,09,38,17.20
2015,06,21,09,39,17.20
2015,06,21,09,40,17.20
2015,06,21,09,41,17.30
2015,06,21,09,42,17.40
2015,06,21,09,43,17.50
2015,06,21,09,44,17.50
2015,06,21,09,45,17.50
2015,06,21,09,46,17.40
2015,06,21,09,47,17.40
2015,06,21,09,48,17.40
2015,06,21,09,49,17.40
2015,06,21,09,50,17.50
2015,06,21,09,51,17.60
2015,06,21,09,52,17.70
2015,06,21,09,53,17.90
2015,06,21,09,54,17.90
2015,06,21,09,55,17.80
2015,06,21,09,56,17.70
2015,06,21,09,57,17.60
2015,06,21,09,58,17.50
2015,06,21,09,59,17.40
2015,06,21,10,00,17.30
2015,06,21,10,01,17.30
2015,06,21,10,02,17.20
2015,06,21,10,03,17.20
2015,06,21,10,04,17.20
2015,06,21,10,05,17.20
2015,06,21,10,06,17.10
2015,06,21,10,07,17.10
2015,06,21,10,08,17.10
2015,06,21,10,09,17.10
2015,06,21,10,10,17.10
2015,06,21,10,11,17.10
2015,06,21,10,12,17.30
2015,06,21,10,13,17.40
2015,06,21,10,14,17.50
2015,06,21,10,15,17.70
2015,06,21,10,16,17.70
2015,06,21,10,17,17.80
2015,06,21,10,18,17.80
2015,06,21,10,19,17.70
2015,06,21,10,20,17.70
2015,06,21,10,21,17.70
2015,06,21,10,22,17.70
2015,06,21,10,23,17.70
2015,06,21,10,24,17.70
2015,06,21,10,25,17.70
2015,06,21,10,26,17.60
2015,06,21,10,27,17.40
2015,06,21,10,28,17.30
2015,06,21,10,29,17.20
2015,06,21,10,30,17.20
2015,06,21,10,31,17.10
2015,06,21,10,32,17.10
2015,06,21,10,33,17.10
2015,06,21,10,34,17.10
2015,06,21,10,35,17.10
2015,06,21,10,36,17.20
2015,06,21,10,37,17.20
2015,06,21,10,38,17.30
2015,06,21,10,39,17.40
2015,06,21,10,40,17.50
2015,06,21,10,41,17.60
2015,06,21,10,42,17.70
2015,06,21,10,43,17.70
2015,06,21,10,44,17.80
2015,06,21,10,45,17.80
2015,06,21,10,46,17.80
2015,06,21,10,47,17.70
2015,06,21,10,48,17.70
2015,06,21,10,49,17.60
2015,06,21,10,50,17.60
2015,06,21,10,51,17.50
2015,06,21,10,52,17.40
2015,06,21,10,53,17.40
2015,06,21,10,54,17.40
2015,06,21,10,55,17.40
2015,06,21,10,56,17.30
2015,06,21,10,57,17.30
2015,06,21,10,58,17.30
2015,06,21,10,59,17.20
2015,06,21,11,00,17.30
2015,06,21,11,01,17.30
2015,06,21,11,02,17.40
2015,06,21,11,03,17.50
2015,06,21,11,04,17.50
2015,06,21,11,05,17.50
2015,06,21,11,06,17.50
2015,06,21,11,07,17.50
2015,06,21,11,08,17.40
2015,06,21,11,09,17.30
2015,06,21,11,10,17.20
2015,06,21,11,11,17.10
2015,06,21,11,12,17.00
2015,06,21,11,13,16.90
2015,06,21,11,14,16.80
2015,06,21,11,15,16.70
2015,06,21,11,16,16.70
2015,06,21,11,17,16.70
2015,06,21,11,18,16.80
2015,06,21,11,19,16.90
2015,06,21,11,20,17.10
2015,06,21,11,21,17.20
2015,06,21,11,22,17.40
2015,06,21,11,23,17.40
2015,06,21,11,24,17.40
2015,06,21,11,25,17.40
2015,06,21,11,26,17.40
2015,06,21,11,27,17.30
2015,06,21,11,28,17.30
2015,06,21,11,29,17.30
2015,06,21,11,30,17.30
2015,06,21,11,31,17.30
2015,06,21,11,32,17.30
2015,06,21,11,33,17.30
2015,06,21,11,34,17.30
2015,06,21,11,35,17.20
2015,06,21,11,36,17.20
2015,06,21,11,37,17.20
2015,06,21,11,38,17.20
2015,06,21,11,39,17.20
2015,06,21,11,40,17.30
2015,06,21,11,41,17.40
2015,06,21,11,42,17.50
2015,06,21,11,43,17.60
2015,06,21,11,44,17.70
2015,06,21,11,45,17.80
2015,06,21,11,46,17.90
2015,06,21,11,47,18.00
2015,06,21,11,48,18.10
2015,06,21,11,49,18.20
2015,06,21,11,50,18.20
2015,06,21,11,51,18.30
2015,06,21,11,52,18.20
2015,06,21,11,53,18.10
2015,06,21,11,54,18.10
2015,06,21,11,55,18.10
2015,06,21,11,56,18.10
2015,06,21,11,57,18.20
2015,06,21,11,58,18.30
2015,06,21,11,59,18.30
2015,06,21,12,00,18.40
2015,06,21,12,01,18.40
2015,06,21,12,02,18.40
2015,06,21,12,03,18.40
2015,06,21,12,04,18.40
2015,06,21,12,05,18.50
2015,06,21,12,06,18.50
2015,06,21,12,07,18.60
2015,06,21,12,08,18.70
2015,06,21,12,09,18.70
2015,06,21,12,10,18.70
2015,06,21,12,11,18.70
2015,06,21,12,12,18.70
2015,06,21,12,13,18.60
2015,06,21,12,14,18.50
2015,06,21,12,15,18.40
2015,06,21,12,16,18.50
2015,06,21,12,17,18.60
2015,06,21,12,18,18.70
2015,06,21,12,19,18.70
2015,06,21,12,20,18.70
2015,06,21,12,21,18.80
2015,06,21,12,22,18.80
2015,06,21,12,23,18.80
2015,06,21,12,24,18.90
2015,06,21,12,25,18.90
2015,06,21,12,26,18.90
2015,06,21,12,27,19.00
2015,06,21,12,28,19.00
2015,06,21,12,29,19.00
2015,06,21,12,30,19.10
2015,06,21,12,31,19.10
2015,06,21,12,32,19.10
2015,06,21,12,33,19.10
2015,06,21,12,34,19.10
2015,06,21,12,35,19.10
2015,06,21,12,36,19.10
2015,06,21,12,37,19.10
2015,06,21,12,38,19.10
2015,06,21,12,39,19.10
2015,06,21,12,40,19.10
2015,06,21,12,41,19.00
2015,06,21,12,42,19.10
2015,06,21,12,43,19.20
2015,06,21,12,44,19.30
2015,06,21,12,45,19.30
2015,06,21,12,46,19.30
2015,06,21,12,47,19.30
2015,06,21,12,48,19.30
2015,06,21,12,49,19.20
2015,06,21,12,50,19.20
2015,06,21,12,51,19.20
2015,06,21,12,52,19.10
2015,06,21,12,53,19.10
2015,06,21,12,54,19.20
2015,06,21,12,55,19.30
2015,06,21,12,56,19.40
2015,06,21,12,57,19.50
2015,06,21,12,58,19.50
2015,06,21,12,59,19.60
2015,06,21,13,00,19.60
2015,06,21,13,01,19.50
2015,06,21,13,02,19.50
2015,06,21,13,03,19.60
2015,06,21,13,04,19.60
2015,06,21,13,05,19.60
2015,06,21,13,06,19.60
2015,06,21,13,07,19.60
2015,06,21,13,08,19.60
2015,06,21,13,09,19.60
2015,06,21,13,10,19.60
2015,06,21,13,11,19.60
2015,06,21,13,12,19.60
2015,06,21,13,13,19.60
2015,06,21,13,14,19.70
2015,06,21,13,15,19.80
2015,06,21,13,16,19.90
2015,06,21,13,17,20.00
2015,06,21,13,18,20.10
2015,06,21,13,19,20.30
2015,06,21,13,20,20.30
2015,06,21,13,21,20.30
2015,06,21,13,22,20.40
2015,06,21,13,23,20.30
2015,06,21,13,24,20.40
2015,06,21,13,25,20.50
2015,06,21,13,26,20.70
2015,06,21,13,27,20.80
2015,06,21,13,28,20.80
2015,06,21,13,29,20.90
2015,06,21,13,30,20.90
2015,06,21,13,31,20.90
2015,06,21,13,32,20.90
2015,06,21,13,33,20.90
2015,06,21,13,34,20.90
2015,06,21,13,35,21.00
2015,06,21,13,36,21.10
2015,06,21,13,37,21.10
2015,06,21,13,38,21.20
2015,06,21,13,39,21.20
2015,06,21,13,40,21.20
2015,06,21,13,41,21.10
2015,06,21,13,42,21.00
2015,06,21,13,43,20.90
2015,06,21,13,44,20.80
2015,06,21,13,45,20.80
2015,06,21,13,46,20.80
2015,06,21,13,47,20.90
2015,06,21,13,48,21.00
2015,06,21,13,49,21.10
2015,06,21,13,50,21.10
2015,06,21,13,51,21.10
2015,06,21,13,52,21.10
2015,06,21,13,53,21.10
2015,06,21,13,54,21.10
2015,06,21,13,55,21.20
2015,06,21,13,56,21.20
2015,06,21,13,57,21.30
2015,06,21,13,58,21.30
2015,06,21,13,59,21.40
2015,06,21,14,00,21.60
2015,06,21,14,01,21.70
2015,06,21,14,02,21.70
2015,06,21,14,03,21.70
2015,06,21,14,04,21.60
2015,06,21,14,05,21.60
2015,06,21,14,06,21.50
2015,06,21,14,07,21.50
2015,06,21,14,08,21.50
2015,06,21,14,09,21.50
2015,06,21,14,10,21.60
2015,06,21,14,11,21.70
2015,06,21,14,12,21.70
2015,06,21,14,13,21.60
2015,06,21,14,14,21.60
2015,06,21,14,15,21.50
2015,06,21,14,16,21.50
2015,06,21,14,17,21.50
2015,06,21,14,18,21.70
2015,06,21,14,19,21.80
2015,06,21,14,20,21.80
2015,06,21,14,21,21.80
2015,06,21,14,22,21.70
2015,06,21,14,23,21.70
2015,06,21,14,24,21.60
2015,06,21,14,25,21.60
2015,06,21,14,26,21.60
2015,06,21,14,27,21.60
2015,06,21,14,28,21.60
2015,06,21,14,29,21.50
2015,06,21,14,30,21.50
2015,06,21,14,31,21.60
2015,06,21,14,32,21.60
2015,06,21,14,33,21.60
2015,06,21,14,34,21.60
2015,06,21,14,35,21.70
2015,06,21,14,36,21.70
2015,06,21,14,37,21.70
2015,06,21,14,38,21.80
2015,06,21,14,39,21.80
2015,06,21,14,40,21.80
2015,06,21,14,41,21.90
2015,06,21,14,42,22.00
2015,06,21,14,43,22.10
2015,06,21,14,44,22.10
2015,06,21,14,45,22.20
2015,06,21,14,46,22.20
2015,06,21,14,47,22.30
2015,06,21,14,48,22.30
2015,06,21,14,49,22.30
2015,06,21,14,50,22.20
2015,06,21,14,51,22.10
2015,06,21,14,52,22.20
2015,06,21,14,53,22.20
2015,06,21,14,54,22.30
2015,06,21,14,55,22.30
2015,06,21,14,56,22.20
2015,06,21,14,57,22.20
2015,06,21,14,58,22.20
2015,06,21,14,59,22.20
2015,06,21,15,00,22.20
2015,06,21,15,01,22.20
2015,06,21,15,02,22.20
2015,06,21,15,03,22.20
2015,06,21,15,04,22.20
2015,06,21,15,05,22.20
2015,06,21,15,06,22.20
2015,06,21,15,07,22.20
2015,06,21,15,08,22.20
2015,06,21,15,09,22.20
2015,06,21,15,10,22.30
2015,06,21,15,11,22.40
2015,06,21,15,12,22.50
2015,06,21,15,13,22.50
2015,06,21,15,14,22.60
2015,06,21,15,15,22.60
2015,06,21,15,16,22.60
2015,06,21,15,17,22.60
2015,06,21,15,18,22.60
2015,06,21,15,19,22.60
2015,06,21,15,20,22.60
2015,06,21,15,21,22.60
2015,06,21,15,22,22.60
2015,06,21,15,23,22.60
2015,06,21,15,24,22.60
2015,06,21,15,25,22.70
2015,06,21,15,26,22.70
2015,06,21,15,27,22.70
2015,06,21,15,28,22.70
2015,06,21,15,29,22.70
2015,06,21,15,30,22.70
2015,06,21,15,31,22.80
2015,06,21,15,32,22.80
2015,06,21,15,33,22.80
2015,06,21,15,34,22.80
2015,06,21,15,35,22.80
2015,06,21,15,36,22.80
2015,06,21,15,37,22.90
2015,06,21,15,38,22.90
2015,06,21,15,39,22.90
2015,06,21,15,40,22.80
2015,06,21,15,41,22.80
2015,06,21,15,42,22.80
2015,06,21,15,43,22.80
2015,06,21,15,44,22.80
2015,06,21,15,45,22.80
2015,06,21,15,46,22.70
2015,06,21,15,47,22.80
2015,06,21,15,48,22.80
2015,06,21,15,49,22.80
2015,06,21,15,50,22.80
2015,06,21,15,51,22.80
2015,06,21,15,52,22.80
2015,06,21,15,53,22.80
2015,06,21,15,54,22.80
2015,06,21,15,55,22.70
2015,06,21,15,56,22.70
2015,06,21,15,57,22.80
2015,06,21,15,58,22.80
2015,06,21,15,59,22.80
2015,06,21,16,00,22.70
2015,06,21,16,01,22.70
2015,06,21,16,02,22.70
2015,06,21,16,03,22.70
2015,06,21,16,04,22.60
2015,06,21,16,05,22.60
2015,06,21,16,06,22.60
2015,06,21,16,07,22.60
2015,06,21,16,08,22.60
2015,06,21,16,09,22.60
2015,06,21,16,10,22.60
2015,06,21,16,11,22.60
2015,06,21,16,12,22.70
2015,06,21,16,13,22.70
2015,06,21,16,14,22.80
2015,06,21,16,15,22.90
2015,06,21,16,16,22.90
2015,06,21,16,17,23.00
2015,06,21,16,18,23.00
2015,06,21,16,19,23.00
2015,06,21,16,20,23.10
2015,06,21,16,21,23.10
2015,06,21,16,22,23.10
2015,06,21,16,23,23.20
2015,06,21,16,24,23.20
2015,06,21,16,25,23.30
2015,06,21,16,26,23.30
2015,06,21,16,27,23.30
2015,06,21,16,28,23.30
2015,06,21,16,29,23.30
2015,06,21,16,30,23.30
2015,06,21,16,31,23.30
2015,06,21,16,32,23.20
2015,06,21,16,33,23.20
2015,06,21,16,34,23.20
2015,06,21,16,35,23.20
2015,06,21,16,36,23.20
2015,06,21,16,37,23.20
2015,06,21,16,38,23.20
2015,06,21,16,39,23.10
2015,06,21,16,40,23.20
2015,06,21,16,41,23.20
2015,06,21,16,42,23.20
2015,06,21,16,43,23.30
2015,06,21,16,44,23.30
2015,06,21,16,45,23.30
2015,06,21,16,46,23.40
2015,06,21,16,47,23.40
2015,06,21,16,48,23.40
2015,06,21,16,49,23.50
2015,06,21,16,50,23.50
2015,06,21,16,51,23.60
2015,06,21,16,52,23.50
2015,06,21,16,53,23.50
2015,06,21,16,54,23.50
2015,06,21,16,55,23.50
2015,06,21,16,56,23.50
2015,06,21,16,57,23.50
2015,06,21,16,58,23.60
2015,06,21,16,59,23.60
2015,06,21,17,00,23.60
2015,06,21,17,01,23.70
2015,06,21,17,02,23.70
2015,06,21,17,03,23.70
2015,06,21,17,04,23.70
2015,06,21,17,05,23.80
2015,06,21,17,06,23.80
2015,06,21,17,07,23.80
2015,06,21,17,08,23.80
2015,06,21,17,09,23.90
2015,06,21,17,10,24.00
2015,06,21,17,11,24.00
2015,06,21,17,12,24.10
2015,06,21,17,13,24.10
2015,06,21,17,14,24.20
2015,06,21,17,15,24.20
2015,06,21,17,16,24.20
2015,06,21,17,17,24.20
2015,06,21,17,18,24.20
2015,06,21,17,19,24.10
2015,06,21,17,20,24.10
2015,06,21,17,21,24.00
2015,06,21,17,22,23.90
2015,06,21,17,23,23.80
2015,06,21,17,24,23.80